| time (UTC) | temp F | wind direction | speed MPH | gust MPH | rain 1hr in | rain 24hr in | rain mn in | humidity % | barometer mb |
| 20260506185504 | 57 | 187 | 2.0 | 9.0 | 0.00 | 1.24 | 0.67 | 57 | 1011.7 |
| 20260506185003 | 57 | 89 | 2.0 | 9.0 | 0.00 | 1.24 | 0.67 | 57 | 1011.7 |
| 20260506184518 | 57 | 122 | 3.0 | 11.0 | 0.00 | 1.24 | 0.67 | 57 | 1011.7 |
| 20260506184004 | 57 | 172 | 1.0 | 11.0 | 0.00 | 1.24 | 0.67 | 58 | 1011.8 |
| 20260506183502 | 57 | 215 | 5.0 | 11.0 | 0.00 | 1.24 | 0.67 | 55 | 1011.7 |
| 20260506183005 | 57 | 159 | 3.0 | 11.0 | 0.00 | 1.24 | 0.67 | 61 | 1011.8 |
| 20260506182501 | 57 | 109 | 3.0 | 11.0 | 0.00 | 1.24 | 0.67 | 60 | 1011.9 |
| 20260506182003 | 56 | 114 | 3.0 | 8.0 | 0.00 | 1.24 | 0.67 | 61 | 1011.7 |
| 20260506181507 | 56 | 161 | 2.0 | 8.0 | 0.00 | 1.24 | 0.67 | 63 | 1011.5 |
| 20260506181002 | 55 | 130 | 2.0 | 8.0 | 0.00 | 1.24 | 0.67 | 62 | 1011.6 |
| 20260506180503 | 56 | 167 | 2.0 | 9.0 | 0.00 | 1.24 | 0.67 | 61 | 1011.6 |
| 20260506180009 | 56 | 146 | 3.0 | 9.0 | 0.00 | 1.24 | 0.67 | 64 | 1011.4 |
| 20260506175508 | 56 | 137 | 3.0 | 9.0 | 0.00 | 1.24 | 0.67 | 60 | 1011.4 |
| 20260506175008 | 56 | 180 | 2.0 | 6.0 | 0.00 | 1.24 | 0.67 | 63 | 1011.5 |
| 20260506174504 | 55 | 159 | 1.0 | 11.0 | 0.00 | 1.24 | 0.67 | 70 | 1011.5 |
| 20260506174006 | 55 | 159 | 3.0 | 11.0 | 0.00 | 1.24 | 0.67 | 70 | 1011.6 |
| 20260506173503 | 55 | 165 | 2.0 | 8.0 | 0.00 | 1.24 | 0.67 | 68 | 1011.5 |
| 20260506173004 | 56 | 156 | 2.0 | 10.0 | 0.00 | 1.24 | 0.67 | 68 | 1011.6 |
| 20260506172501 | 56 | 184 | 4.0 | 10.0 | 0.00 | 1.24 | 0.67 | 68 | 1011.6 |
| 20260506172002 | 56 | 155 | 1.0 | 6.0 | 0.00 | 1.24 | 0.67 | 72 | 1011.7 |
| 20260506171503 | 55 | 155 | 1.0 | 6.0 | 0.00 | 1.24 | 0.67 | 73 | 1011.6 |
| 20260506171003 | 55 | 161 | 2.0 | 11.0 | 0.00 | 1.24 | 0.67 | 67 | 1011.5 |
| 20260506170505 | 55 | 132 | 2.0 | 11.0 | 0.00 | 1.24 | 0.67 | 67 | 1011.5 |
| 20260506170009 | 56 | 114 | 2.0 | 8.0 | 0.00 | 1.24 | 0.67 | 65 | 1011.4 |
| 20260506165506 | 56 | 144 | 3.0 | 8.0 | 0.00 | 1.24 | 0.67 | 68 | 1011.3 |
| 20260506165003 | 55 | 142 | 2.0 | 7.0 | 0.00 | 1.24 | 0.67 | 71 | 1011.5 |
| 20260506164510 | 56 | 205 | 3.0 | 9.0 | 0.00 | 1.24 | 0.67 | 70 | 1011.4 |
| 20260506164002 | 55 | 107 | 1.0 | 9.0 | 0.00 | 1.24 | 0.67 | 74 | 1011.6 |
| 20260506163503 | 55 | 170 | 1.0 | 11.0 | 0.00 | 1.24 | 0.67 | 72 | 1011.6 |
| 20260506163009 | 55 | 138 | 4.0 | 11.0 | 0.00 | 1.24 | 0.67 | 72 | 1011.4 |
| 20260506162504 | 55 | 167 | 4.0 | 10.0 | 0.00 | 1.24 | 0.67 | 72 | 1011.3 |
| 20260506162006 | 55 | 142 | 3.0 | 9.0 | 0.00 | 1.24 | 0.67 | 74 | 1011.2 |
| 20260506161504 | 55 | 155 | 3.0 | 9.0 | 0.00 | 1.24 | 0.67 | 76 | 1011.2 |
| 20260506161004 | 54 | 169 | 2.0 | 9.0 | 0.00 | 1.24 | 0.67 | 75 | 1011.1 |
| 20260506160508 | 54 | 124 | 1.0 | 8.0 | 0.00 | 1.24 | 0.67 | 79 | 1011.0 |
| 20260506160006 | 53 | 151 | 1.0 | 8.0 | 0.00 | 1.24 | 0.67 | 80 | 1011.0 |
| 20260506155502 | 53 | 163 | 0.0 | 11.0 | 0.00 | 1.24 | 0.67 | 79 | 1011.2 |
| 20260506155003 | 53 | 174 | 4.0 | 11.0 | 0.00 | 1.24 | 0.67 | 75 | 1011.2 |
| 20260506154508 | 53 | 129 | 4.0 | 9.0 | 0.00 | 1.24 | 0.67 | 78 | 1011.2 |
| 20260506154004 | 52 | 190 | 2.0 | 9.0 | 0.00 | 1.24 | 0.67 | 78 | 1011.1 |
| 20260506153503 | 52 | 183 | 1.0 | 9.0 | 0.00 | 1.24 | 0.67 | 79 | 1010.9 |
| 20260506153012 | 51 | 194 | 4.0 | 9.0 | 0.00 | 1.24 | 0.67 | 82 | 1010.9 |
| 20260506152506 | 51 | 216 | 3.0 | 10.0 | 0.00 | 1.24 | 0.67 | 83 | 1010.7 |
| 20260506152004 | 50 | 204 | 3.0 | 10.0 | 0.00 | 1.24 | 0.67 | 84 | 1010.7 |
| 20260506151514 | 50 | 140 | 2.0 | 7.0 | 0.00 | 1.24 | 0.67 | 84 | 1010.8 |
| 20260506151005 | 49 | 179 | 1.0 | 8.0 | 0.00 | 1.24 | 0.67 | 86 | 1010.8 |
| 20260506150504 | 49 | 122 | 2.0 | 10.0 | 0.00 | 1.24 | 0.67 | 87 | 1010.8 |
| 20260506150013 | 49 | 172 | 3.0 | 10.0 | 0.00 | 1.24 | 0.67 | 87 | 1010.8 |
| 20260506145504 | 49 | 159 | 2.0 | 7.0 | 0.00 | 1.24 | 0.67 | 89 | 1010.7 |
| 20260506145006 | 48 | 167 | 1.0 | 7.0 | 0.00 | 1.24 | 0.67 | 90 | 1010.7 |
| 20260506144512 | 48 | 189 | 4.0 | 13.0 | 0.00 | 1.24 | 0.67 | 90 | 1010.6 |
| 20260506144002 | 48 | 174 | 5.0 | 13.0 | 0.00 | 1.24 | 0.67 | 90 | 1010.6 |
| 20260506143502 | 48 | 147 | 2.0 | 11.0 | 0.00 | 1.24 | 0.67 | 92 | 1010.4 |
| 20260506143011 | 47 | 118 | 1.0 | 11.0 | 0.00 | 1.24 | 0.67 | 92 | 1010.2 |
| 20260506142503 | 47 | 161 | 2.0 | 7.0 | 0.00 | 1.24 | 0.67 | 94 | 1010.3 |
| 20260506142005 | 47 | 157 | 3.0 | 7.0 | 0.00 | 1.24 | 0.67 | 94 | 1010.2 |
| 20260506141515 | 47 | 142 | 2.0 | 6.0 | 0.00 | 1.24 | 0.67 | 95 | 1010.2 |
| 20260506141011 | 47 | 164 | 2.0 | 8.0 | 0.00 | 1.24 | 0.67 | 95 | 1010.2 |
| 20260506140505 | 46 | 207 | 4.0 | 8.0 | 0.00 | 1.24 | 0.67 | 95 | 1010.0 |
| 20260506140016 | 46 | 121 | 2.0 | 8.0 | 0.00 | 1.24 | 0.67 | 95 | 1010.1 |
| 20260506135506 | 46 | 175 | 1.0 | 7.0 | 0.00 | 1.24 | 0.67 | 95 | 1010.2 |
| 20260506135005 | 46 | 153 | 2.0 | 7.0 | 0.00 | 1.24 | 0.67 | 96 | 1010.3 |
| 20260506134516 | 46 | 177 | 2.0 | 7.0 | 0.00 | 1.24 | 0.67 | 96 | 1010.2 |
| 20260506134005 | 46 | 144 | 1.0 | 6.0 | 0.00 | 1.24 | 0.67 | 96 | 1010.1 |
| 20260506133507 | 46 | 103 | 1.0 | 7.0 | 0.00 | 1.24 | 0.67 | 96 | 1009.9 |
| 20260506133011 | 46 | 145 | 1.0 | 7.0 | 0.00 | 1.24 | 0.67 | 96 | 1009.8 |
| 20260506132504 | 46 | 205 | 2.0 | 6.0 | 0.00 | 1.24 | 0.67 | 96 | 1009.6 |
| 20260506132006 | 46 | 171 | 2.0 | 6.0 | 0.00 | 1.24 | 0.67 | 97 | 1009.6 |
| 20260506131511 | 46 | 192 | 2.0 | 6.0 | 0.00 | 1.24 | 0.67 | 96 | 1009.4 |
| 20260506131004 | 46 | 194 | 2.0 | 6.0 | 0.00 | 1.24 | 0.67 | 97 | 1009.5 |
| 20260506130506 | 46 | 192 | 1.0 | 4.0 | 0.00 | 1.24 | 0.67 | 97 | 1009.4 |
| 20260506130018 | 46 | 113 | 0.0 | 4.0 | 0.00 | 1.24 | 0.67 | 97 | 1009.5 |
| 20260506125504 | 45 | 184 | 1.0 | 7.0 | 0.00 | 1.24 | 0.67 | 96 | 1009.4 |
| 20260506125006 | 45 | 155 | 0.0 | 7.0 | 0.00 | 1.24 | 0.67 | 96 | 1009.4 |
| 20260506124523 | 45 | 169 | 1.0 | 6.0 | 0.00 | 1.24 | 0.67 | 96 | 1009.3 |
| 20260506124006 | 45 | 207 | 1.0 | 5.0 | 0.00 | 1.24 | 0.67 | 96 | 1009.3 |
| 20260506123505 | 45 | 171 | 1.0 | 7.0 | 0.00 | 1.24 | 0.67 | 96 | 1009.4 |
| 20260506123019 | 45 | 190 | 1.0 | 7.0 | 0.00 | 1.24 | 0.67 | 97 | 1009.3 |
| 20260506122506 | 45 | 196 | 1.0 | 6.0 | 0.00 | 1.24 | 0.67 | 97 | 1009.1 |
| 20260506122008 | 45 | 161 | 1.0 | 7.0 | 0.00 | 1.24 | 0.67 | 97 | 1008.9 |
| 20260506121520 | 45 | 194 | 2.0 | 7.0 | 0.00 | 1.24 | 0.67 | 97 | 1008.6 |
| 20260506121007 | 45 | 199 | 3.0 | 6.0 | 0.00 | 1.24 | 0.67 | 97 | 1008.5 |
| 20260506120503 | 45 | 178 | 1.0 | 6.0 | 0.00 | 1.24 | 0.67 | 97 | 1008.7 |
| 20260506120022 | 45 | 165 | 2.0 | 6.0 | 0.00 | 1.24 | 0.67 | 97 | 1008.7 |
| 20260506115509 | 45 | 186 | 0.0 | 6.0 | 0.00 | 1.24 | 0.67 | 97 | 1008.7 |
| 20260506115008 | 45 | 189 | 0.0 | 6.0 | 0.00 | 1.24 | 0.67 | 97 | 1008.9 |
| 20260506114519 | 45 | 142 | 0.0 | 5.0 | 0.00 | 1.24 | 0.67 | 97 | 1008.9 |
| 20260506114004 | 45 | 187 | 0.0 | 4.0 | 0.00 | 1.24 | 0.67 | 97 | 1008.7 |
| 20260506113506 | 45 | 190 | 0.0 | 6.0 | 0.00 | 1.24 | 0.67 | 96 | 1008.5 |
| 20260506113023 | 45 | 129 | 0.0 | 6.0 | 0.00 | 1.24 | 0.67 | 97 | 1008.6 |
| 20260506112510 | 45 | 207 | 1.0 | 4.0 | 0.00 | 1.24 | 0.67 | 96 | 1008.4 |
| 20260506112007 | 45 | 226 | 0.0 | 5.0 | 0.00 | 1.24 | 0.67 | 96 | 1008.2 |
| 20260506111523 | 45 | 198 | 0.0 | 5.0 | 0.00 | 1.24 | 0.67 | 96 | 1008.5 |
| 20260506111009 | 45 | 198 | 1.0 | 4.0 | 0.00 | 1.24 | 0.67 | 96 | 1008.8 |
| 20260506110504 | 45 | 177 | 0.0 | 5.0 | 0.00 | 1.24 | 0.67 | 96 | 1008.9 |
| 20260506110023 | 45 | 171 | 1.0 | 6.0 | 0.01 | 1.24 | 0.67 | 97 | 1008.3 |
| 20260506105512 | 45 | 162 | 2.0 | 8.0 | 0.01 | 1.24 | 0.67 | 97 | 1008.2 |
| 20260506105009 | 44 | 145 | 1.0 | 8.0 | 0.02 | 1.24 | 0.67 | 97 | 1008.3 |
| 20260506104515 | 44 | 167 | 0.0 | 5.0 | 0.02 | 1.24 | 0.67 | 96 | 1007.8 |
| 20260506104010 | 44 | 182 | 1.0 | 4.0 | 0.03 | 1.24 | 0.67 | 96 | 1007.5 |
| 20260506103508 | 44 | 192 | 1.0 | 5.0 | 0.04 | 1.24 | 0.67 | 96 | 1007.1 |
| 20260506103025 | 44 | 217 | 2.0 | 5.0 | 0.04 | 1.24 | 0.67 | 96 | 1006.9 |
| 20260506102507 | 44 | 221 | 1.0 | 7.0 | 0.05 | 1.24 | 0.67 | 96 | 1007.0 |
| 20260506102010 | 44 | 203 | 1.0 | 7.0 | 0.06 | 1.24 | 0.67 | 96 | 1007.2 |
| 20260506101524 | 44 | 222 | 2.0 | 7.0 | 0.07 | 1.24 | 0.67 | 96 | 1007.0 |
| 20260506101007 | 44 | 225 | 1.0 | 5.0 | 0.08 | 1.24 | 0.67 | 96 | 1006.9 |
| 20260506100508 | 44 | 240 | 1.0 | 6.0 | 0.09 | 1.24 | 0.67 | 96 | 1007.0 |
| 20260506100027 | 44 | 218 | 2.0 | 7.0 | 0.09 | 1.23 | 0.66 | 96 | 1007.2 |
| 20260506095510 | 44 | 224 | 3.0 | 7.0 | 0.10 | 1.23 | 0.66 | 96 | 1007.4 |
| 20260506095006 | 44 | 172 | 2.0 | 8.0 | 0.09 | 1.22 | 0.65 | 96 | 1007.7 |
| 20260506094528 | 44 | 203 | 2.0 | 8.0 | 0.10 | 1.22 | 0.65 | 96 | 1007.7 |
| 20260506094005 | 44 | 157 | 1.0 | 8.0 | 0.09 | 1.21 | 0.64 | 96 | 1007.9 |
| 20260506093505 | 44 | 206 | 2.0 | 7.0 | 0.08 | 1.20 | 0.63 | 96 | 1007.9 |
| 20260506093030 | 44 | 182 | 1.0 | 7.0 | 0.08 | 1.20 | 0.63 | 96 | 1007.9 |
| 20260506092503 | 44 | 173 | 2.0 | 8.0 | 0.08 | 1.19 | 0.62 | 96 | 1007.8 |
| 20260506092004 | 44 | 169 | 2.0 | 8.0 | 0.07 | 1.17 | 0.61 | 96 | 1007.8 |
| 20260506091526 | 44 | 196 | 2.0 | 5.0 | 0.07 | 1.16 | 0.60 | 96 | 1007.6 |
| 20260506091003 | 44 | 215 | 2.0 | 5.0 | 0.07 | 1.16 | 0.58 | 96 | 1007.8 |
| 20260506090502 | 44 | 173 | 0.0 | 6.0 | 0.07 | 1.15 | 0.58 | 96 | 1007.7 |
| 20260506090019 | 44 | 189 | 2.0 | 9.0 | 0.08 | 1.14 | 0.57 | 96 | 1007.7 |
| 20260506085503 | 44 | 171 | 2.0 | 9.0 | 0.09 | 1.13 | 0.56 | 96 | 1007.6 |
| 20260506085003 | 44 | 198 | 2.0 | 7.0 | 0.11 | 1.13 | 0.56 | 96 | 1007.5 |
| 20260506084530 | 44 | 193 | 3.0 | 10.0 | 0.12 | 1.12 | 0.55 | 96 | 1007.6 |
| 20260506084004 | 44 | 180 | 3.0 | 10.0 | 0.13 | 1.12 | 0.55 | 95 | 1007.5 |
| 20260506083504 | 44 | 170 | 6.0 | 10.0 | 0.14 | 1.12 | 0.55 | 95 | 1007.4 |
| 20260506083010 | 44 | 214 | 5.0 | 11.0 | 0.16 | 1.12 | 0.55 | 95 | 1007.2 |
| 20260506082504 | 44 | 203 | 6.0 | 13.0 | 0.16 | 1.11 | 0.54 | 95 | 1007.4 |
| 20260506082009 | 44 | 201 | 7.0 | 13.0 | 0.17 | 1.11 | 0.54 | 95 | 1007.4 |
| 20260506081505 | 44 | 149 | 3.0 | 9.0 | 0.17 | 1.10 | 0.52 | 95 | 1007.4 |
| 20260506081004 | 45 | 211 | 3.0 | 12.0 | 0.17 | 1.09 | 0.52 | 95 | 1007.4 |
| 20260506080506 | 45 | 176 | 3.0 | 12.0 | 0.17 | 1.08 | 0.51 | 95 | 1007.3 |
| 20260506073504 | 46 | 148 | 3.0 | 11.0 | 0.13 | 0.98 | 0.41 | 95 | 1007.1 |
| 20260506073012 | 46 | 192 | 2.0 | 9.0 | 0.12 | 0.96 | 0.39 | 96 | 1007.1 |
| 20260506072506 | 47 | 185 | 3.0 | 10.0 | 0.12 | 0.95 | 0.38 | 95 | 1007.0 |
| 20260506072003 | 47 | 207 | 5.0 | 10.0 | 0.12 | 0.94 | 0.37 | 96 | 1006.8 |
| 20260506071517 | 47 | 187 | 2.0 | 11.0 | 0.11 | 0.93 | 0.36 | 96 | 1006.8 |
| 20260506071008 | 47 | 162 | 2.0 | 11.0 | 0.12 | 0.92 | 0.35 | 96 | 1006.8 |
| 20260506070508 | 47 | 195 | 4.0 | 9.0 | 0.13 | 0.91 | 0.34 | 96 | 1006.8 |
| 20260506062504 | 48 | 208 | 1.0 | 4.0 | 0.12 | 0.83 | 0.26 | 96 | 1007.2 |
| 20260506062005 | 48 | 193 | 2.0 | 4.0 | 0.12 | 0.82 | 0.25 | 96 | 1007.2 |
| 20260506061522 | 48 | 203 | 0.0 | 6.0 | 0.13 | 0.82 | 0.25 | 96 | 1007.3 |
| 20260506061004 | 48 | 209 | 2.0 | 6.0 | 0.12 | 0.80 | 0.23 | 96 | 1007.4 |
| 20260506060505 | 48 | 198 | 3.0 | 5.0 | 0.11 | 0.78 | 0.21 | 96 | 1007.4 |
| 20260506051004 | 48 | 201 | 3.0 | 6.0 | 0.08 | 0.68 | 0.11 | 96 | 1007.9 |
| 20260506050505 | 48 | 233 | 2.0 | 9.0 | 0.08 | 0.67 | 0.10 | 95 | 1007.9 |
| 20260506045006 | 48 | 205 | 2.0 | 7.0 | 0.10 | 0.66 | 0.09 | 95 | 1008.1 |
| 20260506044533 | 48 | 169 | 3.0 | 6.0 | 0.10 | 0.65 | 0.08 | 95 | 1008.2 |
| 20260506044008 | 48 | 210 | 3.0 | 7.0 | 0.10 | 0.64 | 0.07 | 95 | 1008.2 |
| 20260506043513 | 48 | 211 | 2.0 | 7.0 | 0.10 | 0.64 | 0.07 | 95 | 1008.2 |
| 20260506043023 | 48 | 205 | 2.0 | 9.0 | 0.10 | 0.63 | 0.06 | 95 | 1008.2 |
| 20260506042509 | 48 | 190 | 3.0 | 10.0 | 0.10 | 0.62 | 0.05 | 95 | 1008.3 |
| 20260506042010 | 48 | 212 | 4.0 | 10.0 | 0.09 | 0.61 | 0.04 | 95 | 1008.3 |
| 20260506041527 | 48 | 192 | 4.0 | 10.0 | 0.10 | 0.61 | 0.04 | 95 | 1008.3 |
| 20260506041006 | 49 | 200 | 4.0 | 7.0 | 0.09 | 0.60 | 0.03 | 95 | 1008.3 |
| 20260506040510 | 49 | 188 | 2.0 | 10.0 | 0.08 | 0.58 | 0.02 | 95 | 1008.3 |
| 20260506040033 | 49 | 205 | 4.0 | 10.0 | 0.07 | 0.57 | 0.00 | 95 | 1008.2 |
| 20260506035505 | 49 | 217 | 5.0 | 9.0 | 0.06 | 0.56 | 0.56 | 95 | 1008.2 |
| 20260506035006 | 49 | 201 | 5.0 | 9.0 | 0.07 | 0.56 | 0.56 | 95 | 1008.1 |
| 20260506034525 | 49 | 220 | 5.0 | 10.0 | 0.06 | 0.55 | 0.55 | 95 | 1008.1 |
| 20260506034008 | 49 | 195 | 5.0 | 10.0 | 0.08 | 0.54 | 0.54 | 95 | 1008.2 |
| 20260506033507 | 49 | 209 | 4.0 | 8.0 | 0.08 | 0.54 | 0.54 | 95 | 1008.3 |
| 20260506033020 | 49 | 223 | 5.0 | 9.0 | 0.08 | 0.52 | 0.52 | 95 | 1008.3 |
| 20260506032508 | 49 | 233 | 4.0 | 9.0 | 0.08 | 0.52 | 0.52 | 95 | 1008.3 |
| 20260506032003 | 49 | 238 | 5.0 | 9.0 | 0.10 | 0.52 | 0.52 | 95 | 1008.2 |
| 20260506031506 | 49 | 218 | 5.0 | 16.0 | 0.12 | 0.51 | 0.51 | 95 | 1008.3 |
| 20260506031003 | 49 | 220 | 10.0 | 16.0 | 0.16 | 0.51 | 0.51 | 94 | 1008.3 |
| 20260506030502 | 50 | 186 | 6.0 | 12.0 | 0.19 | 0.51 | 0.51 | 94 | 1008.5 |
| 20260506030004 | 50 | 217 | 8.0 | 12.0 | 0.19 | 0.50 | 0.50 | 94 | 1008.6 |
| 20260506025505 | 51 | 198 | 3.0 | 8.0 | 0.20 | 0.50 | 0.50 | 94 | 1008.7 |
| 20260506025004 | 51 | 189 | 2.0 | 8.0 | 0.19 | 0.49 | 0.49 | 95 | 1008.8 |
| 20260506024502 | 51 | 145 | 2.0 | 7.0 | 0.20 | 0.49 | 0.49 | 95 | 1008.8 |
| 20260506024002 | 51 | 173 | 2.0 | 7.0 | 0.17 | 0.46 | 0.46 | 95 | 1008.8 |
| 20260506023502 | 51 | 232 | 2.0 | 9.0 | 0.18 | 0.46 | 0.46 | 94 | 1008.5 |
| 20260506023007 | 51 | 226 | 3.0 | 9.0 | 0.17 | 0.45 | 0.45 | 93 | 1008.6 |
| 20260506022502 | 52 | 242 | 3.0 | 8.0 | 0.16 | 0.44 | 0.44 | 93 | 1008.7 |
| 20260506022003 | 53 | 179 | 3.0 | 9.0 | 0.15 | 0.42 | 0.42 | 93 | 1008.6 |
| 20260506021503 | 53 | 196 | 3.0 | 9.0 | 0.12 | 0.39 | 0.39 | 93 | 1008.0 |
| 20260506021004 | 54 | 161 | 2.0 | 9.0 | 0.08 | 0.35 | 0.35 | 94 | 1008.2 |
| 20260506020507 | 55 | 281 | 2.0 | 9.0 | 0.05 | 0.32 | 0.32 | 94 | 1007.9 |
| 20260506020006 | 55 | 265 | 3.0 | 8.0 | 0.04 | 0.31 | 0.31 | 94 | 1007.8 |
| 20260506015503 | 56 | 236 | 4.0 | 8.0 | 0.04 | 0.30 | 0.30 | 94 | 1007.8 |
| 20260506015003 | 56 | 241 | 2.0 | 3.0 | 0.04 | 0.30 | 0.30 | 95 | 1007.8 |
| 20260506014506 | 56 | 150 | 0.0 | 0.0 | 0.03 | 0.29 | 0.29 | 95 | 1007.8 |
| 20260506014004 | 56 | 150 | 0.0 | 0.0 | 0.03 | 0.29 | 0.29 | 95 | 1007.8 |
| 20260506013505 | 56 | 150 | 0.0 | 0.0 | 0.02 | 0.28 | 0.28 | 95 | 1007.8 |
| 20260506013004 | 56 | 150 | 0.0 | 0.0 | 0.03 | 0.28 | 0.28 | 95 | 1007.8 |
| 20260506012503 | 56 | 150 | 0.0 | 1.0 | 0.03 | 0.28 | 0.28 | 95 | 1007.8 |
| 20260506012003 | 56 | 150 | 0.0 | 2.0 | 0.02 | 0.27 | 0.27 | 95 | 1007.7 |
| 20260506011512 | 56 | 150 | 0.0 | 2.0 | 0.03 | 0.27 | 0.27 | 95 | 1007.7 |
| 20260506011005 | 56 | 150 | 0.0 | 0.0 | 0.03 | 0.27 | 0.27 | 95 | 1007.6 |
| 20260506010503 | 56 | 150 | 0.0 | 0.0 | 0.03 | 0.27 | 0.27 | 95 | 1007.7 |
| 20260506010006 | 56 | 150 | 0.0 | 0.0 | 0.03 | 0.27 | 0.27 | 95 | 1007.6 |
| 20260506005503 | 56 | 150 | 0.0 | 0.0 | 0.03 | 0.26 | 0.26 | 94 | 1007.6 |
| 20260506005003 | 56 | 150 | 0.0 | 0.0 | 0.04 | 0.26 | 0.26 | 94 | 1007.6 |
| 20260506004516 | 56 | 150 | 0.0 | 0.0 | 0.04 | 0.26 | 0.26 | 94 | 1007.7 |
| 20260506004003 | 56 | 150 | 0.0 | 0.0 | 0.06 | 0.26 | 0.26 | 94 | 1007.7 |
| 20260506003503 | 56 | 150 | 0.0 | 0.0 | 0.08 | 0.26 | 0.26 | 94 | 1007.7 |
| 20260506003006 | 56 | 150 | 0.0 | 0.0 | 0.08 | 0.25 | 0.25 | 94 | 1007.7 |
| 20260506002504 | 56 | 150 | 0.0 | 0.0 | 0.11 | 0.25 | 0.25 | 94 | 1007.7 |
| 20260506002003 | 56 | 150 | 0.0 | 0.0 | 0.16 | 0.25 | 0.25 | 94 | 1007.8 |
| 20260506001504 | 56 | 150 | 0.0 | 1.0 | 0.20 | 0.24 | 0.24 | 94 | 1007.7 |
| 20260506001004 | 56 | 150 | 0.0 | 1.0 | 0.21 | 0.24 | 0.24 | 94 | 1007.7 |
| 20260506000502 | 56 | 150 | 0.0 | 1.0 | 0.21 | 0.24 | 0.24 | 93 | 1007.8 |
| 20260506000003 | 56 | 150 | 0.0 | 1.0 | 0.21 | 0.24 | 0.24 | 93 | 1007.8 |
| 20260505235502 | 56 | 150 | 0.0 | 1.0 | 0.21 | 0.23 | 0.23 | 93 | 1007.8 |
| 20260505235003 | 57 | 145 | 0.0 | 6.0 | 0.20 | 0.22 | 0.22 | 93 | 1007.9 |
| 20260505234509 | 57 | 161 | 1.0 | 7.0 | 0.20 | 0.22 | 0.22 | 93 | 1007.9 |
| 20260505234007 | 57 | 106 | 0.0 | 8.0 | 0.18 | 0.20 | 0.20 | 92 | 1008.0 |
| 20260505233504 | 57 | 99 | 3.0 | 8.0 | 0.16 | 0.18 | 0.18 | 92 | 1008.0 |
| 20260505233020 | 57 | 120 | 0.0 | 12.0 | 0.15 | 0.17 | 0.17 | 91 | 1008.1 |
| 20260505232505 | 58 | 140 | 6.0 | 14.0 | 0.12 | 0.14 | 0.14 | 90 | 1008.2 |
| 20260505232003 | 59 | 153 | 5.0 | 14.0 | 0.07 | 0.09 | 0.09 | 90 | 1008.3 |
| 20260505231520 | 59 | 113 | 4.0 | 11.0 | 0.02 | 0.04 | 0.04 | 89 | 1008.3 |
| 20260505231007 | 59 | 156 | 0.0 | 5.0 | 0.01 | 0.03 | 0.03 | 88 | 1007.6 |
| 20260505230503 | 60 | 167 | 0.0 | 5.0 | 0.01 | 0.03 | 0.03 | 88 | 1007.4 |
| 20260505230009 | 60 | 166 | 1.0 | 5.0 | 0.01 | 0.03 | 0.03 | 88 | 1007.3 |
| 20260505225510 | 60 | 173 | 1.0 | 5.0 | 0.00 | 0.02 | 0.02 | 88 | 1007.3 |
| 20260505225003 | 60 | 195 | 0.0 | 2.0 | 0.00 | 0.02 | 0.02 | 87 | 1007.2 |
| 20260505224505 | 60 | 195 | 0.0 | 4.0 | 0.00 | 0.02 | 0.02 | 88 | 1007.2 |
| 20260505224003 | 60 | 195 | 1.0 | 4.0 | 0.00 | 0.02 | 0.02 | 88 | 1007.3 |
| 20260505223504 | 60 | 190 | 0.0 | 4.0 | 0.00 | 0.02 | 0.02 | 88 | 1007.3 |
| 20260505223005 | 60 | 190 | 0.0 | 4.0 | 0.00 | 0.02 | 0.02 | 87 | 1007.3 |
| 20260505222505 | 60 | 188 | 1.0 | 5.0 | 0.00 | 0.02 | 0.02 | 87 | 1007.3 |
| 20260505222007 | 61 | 130 | 0.0 | 5.0 | 0.00 | 0.02 | 0.02 | 87 | 1007.5 |
| 20260505221513 | 61 | 177 | 2.0 | 5.0 | 0.00 | 0.02 | 0.02 | 86 | 1007.4 |
| 20260505221003 | 61 | 159 | 0.0 | 5.0 | 0.00 | 0.02 | 0.02 | 86 | 1007.4 |
| 20260505220505 | 61 | 186 | 2.0 | 6.0 | 0.00 | 0.02 | 0.02 | 87 | 1007.5 |
| 20260505220040 | 61 | 162 | 1.0 | 6.0 | 0.00 | 0.02 | 0.02 | 86 | 1007.6 |
| 20260505215510 | 61 | 142 | 0.0 | 5.0 | 0.00 | 0.02 | 0.02 | 85 | 1007.7 |
| 20260505215004 | 61 | 124 | 0.0 | 8.0 | 0.00 | 0.02 | 0.02 | 85 | 1007.6 |
| 20260505214525 | 61 | 161 | 2.0 | 8.0 | 0.00 | 0.02 | 0.02 | 85 | 1007.6 |
| 20260505214010 | 62 | 146 | 1.0 | 7.0 | 0.00 | 0.02 | 0.02 | 86 | 1007.6 |
| 20260505213503 | 62 | 137 | 2.0 | 8.0 | 0.00 | 0.02 | 0.02 | 86 | 1007.5 |
| 20260505213006 | 62 | 134 | 3.0 | 14.0 | 0.00 | 0.02 | 0.02 | 85 | 1007.5 |
| 20260505212504 | 61 | 110 | 3.0 | 14.0 | 0.00 | 0.02 | 0.02 | 85 | 1007.5 |
| 20260505212004 | 61 | 104 | 6.0 | 12.0 | 0.00 | 0.02 | 0.02 | 85 | 1007.5 |
| 20260505211510 | 61 | 99 | 8.0 | 12.0 | 0.01 | 0.02 | 0.02 | 85 | 1007.5 |
| 20260505211005 | 61 | 76 | 5.0 | 10.0 | 0.01 | 0.02 | 0.02 | 85 | 1007.4 |
| 20260505210504 | 61 | 98 | 4.0 | 12.0 | 0.02 | 0.02 | 0.02 | 86 | 1007.5 |
| 20260505210017 | 61 | 63 | 6.0 | 14.0 | 0.02 | 0.02 | 0.02 | 86 | 1007.5 |
| 20260505205507 | 61 | 53 | 6.0 | 14.0 | 0.02 | 0.02 | 0.02 | 85 | 1007.5 |
| 20260505205008 | 61 | 109 | 6.0 | 14.0 | 0.02 | 0.02 | 0.02 | 86 | 1007.5 |
| 20260505204523 | 61 | 116 | 7.0 | 16.0 | 0.02 | 0.02 | 0.02 | 85 | 1007.5 |
| 20260505204002 | 61 | 39 | 6.0 | 16.0 | 0.02 | 0.02 | 0.02 | 86 | 1007.5 |
| 20260505203506 | 61 | 56 | 7.0 | 13.0 | 0.02 | 0.02 | 0.02 | 87 | 1007.5 |
| 20260505203024 | 61 | 75 | 10.0 | 13.0 | 0.02 | 0.02 | 0.02 | 86 | 1007.5 |
| 20260505202508 | 62 | 20 | 7.0 | 13.0 | 0.02 | 0.02 | 0.02 | 84 | 1007.6 |
| 20260505202004 | 62 | 28 | 5.0 | 13.0 | 0.02 | 0.02 | 0.02 | 83 | 1007.7 |
| 20260505201518 | 63 | 103 | 6.0 | 15.0 | 0.01 | 0.01 | 0.01 | 80 | 1007.8 |
| 20260505201004 | 64 | 75 | 9.0 | 15.0 | 0.01 | 0.01 | 0.01 | 77 | 1007.8 |
| 20260505200501 | 65 | 58 | 6.0 | 14.0 | 0.00 | 0.00 | 0.00 | 74 | 1007.8 |
| 20260505200012 | 66 | 50 | 9.0 | 14.0 | 0.00 | 0.00 | 0.00 | 70 | 1007.6 |
| 20260505195507 | 66 | 45 | 6.0 | 12.0 | 0.00 | 0.00 | 0.00 | 70 | 1007.5 |
| 20260505195007 | 66 | 23 | 5.0 | 11.0 | 0.00 | 0.00 | 0.00 | 68 | 1007.6 |
| 20260505194519 | 67 | 148 | 7.0 | 13.0 | 0.00 | 0.00 | 0.00 | 67 | 1007.6 |
| 20260505194011 | 67 | 84 | 7.0 | 13.0 | 0.00 | 0.00 | 0.00 | 67 | 1007.6 |
| 20260505193508 | 67 | 102 | 5.0 | 11.0 | 0.00 | 0.00 | 0.00 | 67 | 1007.6 |
| 20260505193033 | 67 | 91 | 6.0 | 10.0 | 0.00 | 0.00 | 0.00 | 67 | 1007.7 |
| 20260505192506 | 67 | 61 | 5.0 | 12.0 | 0.00 | 0.00 | 0.00 | 69 | 1007.6 |
| 20260505192008 | 67 | 94 | 5.0 | 13.0 | 0.00 | 0.00 | 0.00 | 69 | 1007.7 |
| 20260505191526 | 66 | 90 | 7.0 | 13.0 | 0.00 | 0.00 | 0.00 | 68 | 1007.7 |
| 20260505191009 | 66 | 102 | 6.0 | 12.0 | 0.00 | 0.00 | 0.00 | 68 | 1007.7 |
| 20260505190506 | 66 | 93 | 7.0 | 11.0 | 0.00 | 0.00 | 0.00 | 69 | 1007.8 |
| 20260505190025 | 66 | 134 | 3.0 | 11.0 | 0.00 | 0.00 | 0.00 | 70 | 1007.9 |